GW4285 Weather Reports


Display with metric or nautical units.
time (UTC)temp
F
wind
direction
speed
MPH
gust
MPH
rain 1hr
in
rain 24hr
in
rain mn
in
humidity
%
barometer
mb
20260901101415 56 256 0.0 0.0 0.00 0.00 0.00 97 1013.8
20260901100914 56 256 0.0 0.0 0.00 0.00 0.00 97 1013.8
20260901100408 56 252 0.0 0.0 0.00 0.00 0.00 97 1013.8
20260901095902 56 261 0.0 0.0 0.00 0.00 0.00 97 1013.7
20260901095400 56 259 0.0 0.0 0.00 0.00 0.00 97 1013.7
20260901094854 56 271 0.0 0.0 0.00 0.00 0.00 97 1013.7
20260901094348 56 279 0.0 0.0 0.00 0.00 0.00 97 1013.7
20260901093843 56 266 1.0 3.0 0.00 0.00 0.00 97 1013.7
20260901093342 56 260 0.0 0.0 0.00 0.00 0.00 97 1013.6
20260901092838 56 256 0.0 0.0 0.00 0.00 0.00 97 1013.7
20260901092334 56 256 0.0 0.0 0.00 0.00 0.00 97 1013.7
20260901091830 56 256 0.0 0.0 0.00 0.00 0.00 97 1013.7
20260901091324 56 257 0.0 0.0 0.00 0.00 0.00 97 1013.6
20260901090819 56 257 0.0 0.0 0.00 0.00 0.00 97 1013.6
20260901090314 56 257 0.0 0.0 0.00 0.00 0.00 97 1013.5
20260901085810 56 257 0.0 0.0 0.00 0.00 0.00 97 1013.6
20260901085306 56 257 0.0 0.0 0.00 0.00 0.00 97 1013.6
20260901084801 56 257 0.0 0.0 0.00 0.00 0.00 97 1013.6
20260901084257 56 257 0.0 0.0 0.00 0.00 0.00 97 1013.6
20260901083757 56 257 0.0 0.0 0.00 0.00 0.00 97 1013.5
20260901083257 56 257 0.0 0.0 0.00 0.00 0.00 97 1013.6
20260901082755 56 257 0.0 0.0 0.00 0.00 0.00 97 1013.6
20260901082251 56 257 0.0 0.0 0.00 0.00 0.00 97 1013.6
20260901081746 56 257 0.0 1.0 0.00 0.00 0.00 97 1013.6
20260901081246 56 244 0.0 0.0 0.00 0.00 0.00 97 1013.6
20260901080741 56 245 0.0 0.0 0.00 0.00 0.00 97 1013.5
20260901080240 56 252 0.0 1.0 0.00 0.00 0.00 97 1013.5
20260901075735 56 255 0.0 1.0 0.00 0.00 0.00 97 1013.6
20260901075230 56 254 0.0 0.0 0.00 0.00 0.00 97 1013.4
20260901074729 56 254 0.0 0.0 0.00 0.00 0.00 97 1013.4
20260901074225 56 254 0.0 0.0 0.00 0.00 0.00 97 1013.4
20260901073721 56 254 0.0 0.0 0.00 0.00 0.00 97 1013.5
20260901073216 56 254 0.0 0.0 0.00 0.00 0.00 97 1013.4
20260901072711 56 251 1.0 3.0 0.00 0.00 0.00 97 1013.4
20260901072206 56 259 0.0 1.0 0.00 0.00 0.00 96 1013.3
20260901071701 56 267 0.0 1.0 0.00 0.00 0.00 96 1013.4
20260901071200 56 254 0.0 1.0 0.00 0.00 0.00 96 1013.3
20260901070649 57 252 0.0 0.0 0.00 0.00 0.00 96 1013.2
20260901070144 57 268 0.0 1.0 0.00 0.00 0.00 95 1013.3
20260901065643 57 255 0.0 1.0 0.00 0.00 0.00 95 1013.3
20260901065138 57 265 2.0 5.0 0.00 0.00 0.00 95 1013.5
20260901064635 57 254 0.0 3.0 0.00 0.00 0.00 95 1013.4
20260901064131 57 255 5.0 5.0 0.00 0.00 0.00 95 1013.4
20260901063628 57 251 2.0 4.0 0.00 0.00 0.00 94 1013.3
20260901063123 57 247 1.0 4.0 0.00 0.00 0.00 94 1013.3
20260901062619 57 270 5.0 8.0 0.00 0.00 0.00 94 1013.4
20260901062115 58 243 4.0 4.0 0.00 0.00 0.00 94 1013.3
20260901061611 58 245 4.0 5.0 0.00 0.00 0.00 94 1013.3
20260901061106 58 261 0.0 1.0 0.00 0.00 0.00 94 1013.5
20260901060605 58 264 4.0 5.0 0.00 0.00 0.00 93 1013.5
20260901060101 58 266 3.0 7.0 0.00 0.00 0.00 93 1013.4
20260901055556 58 245 2.0 4.0 0.00 0.00 0.00 93 1013.4
20260901055053 58 249 3.0 5.0 0.00 0.00 0.00 93 1013.6
20260901054549 58 249 1.0 3.0 0.00 0.00 0.00 93 1013.5
20260901054045 58 264 0.0 5.0 0.00 0.00 0.00 93 1013.4
20260901053541 58 245 0.0 5.0 0.00 0.00 0.00 93 1013.5
20260901053037 58 257 4.0 8.0 0.00 0.00 0.00 93 1013.6
20260901052532 58 273 2.0 4.0 0.00 0.00 0.00 92 1013.5
20260901052031 58 248 0.0 7.0 0.00 0.00 0.00 93 1013.6
20260901051526 58 250 3.0 10.0 0.00 0.00 0.00 93 1013.6
20260901051025 58 255 3.0 5.0 0.00 0.00 0.00 93 1013.6
20260901050521 59 279 4.0 8.0 0.00 0.00 0.00 92 1013.7
20260901050017 59 268 2.0 4.0 0.00 0.00 0.00 93 1013.7
20260901045512 59 267 3.0 4.0 0.00 0.00 0.00 92 1013.5
20260901045011 59 257 1.0 4.0 0.00 0.00 0.00 93 1013.4
20260901044508 59 280 4.0 7.0 0.00 0.00 0.00 92 1013.5
20260901044003 59 250 4.0 10.0 0.00 0.00 0.00 93 1013.5
20260901043459 59 260 1.0 5.0 0.00 0.00 0.00 92 1013.6
20260901042954 59 249 0.0 5.0 0.00 0.00 0.00 92 1013.5
20260901042453 59 244 5.0 11.0 0.00 0.00 0.00 92 1013.5
20260901041949 59 243 2.0 7.0 0.00 0.00 0.00 91 1013.5
20260901041444 59 294 2.0 4.0 0.00 0.00 0.00 91 1013.6
20260901040943 59 268 1.0 8.0 0.00 0.00 0.00 92 1013.5
20260901040438 59 261 4.0 5.0 0.00 0.00 0.00 92 1013.4
20260901035937 59 263 5.0 8.0 0.00 0.00 0.00 92 1013.3
20260901035436 59 265 2.0 5.0 0.00 0.00 0.00 91 1013.2
20260901034935 59 278 5.0 8.0 0.00 0.00 0.00 91 1013.4
20260901034434 59 247 0.0 1.0 0.00 0.00 0.00 91 1013.2
20260901033930 59 267 2.0 10.0 0.00 0.00 0.00 91 1013.2
20260901033429 59 247 3.0 7.0 0.00 0.00 0.00 91 1013.1
20260901032927 59 237 0.0 7.0 0.00 0.00 0.00 91 1013.0
20260901032422 59 250 5.0 8.0 0.00 0.00 0.00 91 1012.9
20260901031917 59 291 4.0 7.0 0.00 0.00 0.00 91 1012.9
20260901031413 59 252 9.0 12.0 0.00 0.00 0.00 91 1012.9
20260901030913 59 234 4.0 7.0 0.00 0.00 0.00 90 1012.8
20260901030408 59 232 7.0 10.0 0.00 0.00 0.00 90 1012.9
20260901025906 59 243 4.0 11.0 0.00 0.00 0.00 90 1012.9
20260901025402 59 260 3.0 7.0 0.00 0.00 0.00 89 1012.9
20260901024856 59 235 5.0 12.0 0.00 0.00 0.00 90 1012.9
20260901024356 59 263 7.0 12.0 0.00 0.00 0.00 89 1013.0
20260901023854 60 252 4.0 11.0 0.00 0.00 0.00 88 1012.9
20260901023350 60 266 9.0 10.0 0.00 0.00 0.00 88 1012.9
20260901022845 60 259 4.0 14.0 0.00 0.00 0.00 87 1012.8
20260901022341 60 255 5.0 10.0 0.00 0.00 0.00 87 1012.8
20260901021836 60 263 4.0 10.0 0.00 0.00 0.00 86 1012.8
20260901021331 60 45 0.0 3.0 0.00 0.00 0.00 86 1012.7
20260901020826 61 266 3.0 10.0 0.00 0.00 0.00 85 1012.8
20260901020321 61 259 7.0 10.0 0.00 0.00 0.00 84 1012.6
20260901015816 62 287 7.0 10.0 0.00 0.00 0.00 83 1012.8
20260901015312 62 296 2.0 8.0 0.00 0.00 0.00 83 1012.8
20260901014811 62 266 6.0 8.0 0.00 0.00 0.00 82 1012.9
20260901014307 62 263 3.0 10.0 0.00 0.00 0.00 82 1012.8
20260901013803 63 238 4.0 12.0 0.00 0.00 0.00 80 1012.7
20260901013258 62 288 4.0 11.0 0.00 0.00 0.00 81 1012.7
20260901012753 64 255 5.0 14.0 0.00 0.00 0.00 78 1012.6
20260901012253 63 251 3.0 7.0 0.00 0.00 0.00 77 1012.8
20260901011749 63 267 11.0 15.0 0.00 0.00 0.00 78 1012.6
20260901011244 64 210 6.0 15.0 0.00 0.00 0.00 76 1012.6
20260901010738 66 265 5.0 10.0 0.00 0.00 0.00 73 1012.6
20260901010233 66 261 4.0 11.0 0.00 0.00 0.00 72 1012.6
20260901005732 66 280 9.0 18.0 0.00 0.00 0.00 72 1012.7
20260901005227 67 235 6.0 12.0 0.00 0.00 0.00 71 1012.6
20260901004727 67 233 2.0 7.0 0.00 0.00 0.00 69 1012.6
20260901004221 67 236 9.0 18.0 0.00 0.00 0.00 71 1012.5
20260901003715 67 245 2.0 12.0 0.00 0.00 0.00 70 1012.7
20260901003210 67 207 2.0 10.0 0.00 0.00 0.00 69 1012.7
20260901002708 67 258 3.0 10.0 0.00 0.00 0.00 68 1012.8
20260901002203 68 269 6.0 14.0 0.00 0.00 0.00 68 1012.7
20260901001659 68 224 3.0 12.0 0.00 0.00 0.00 68 1012.7
20260901001154 69 252 8.0 15.0 0.00 0.00 0.00 67 1012.6
20260901000649 68 251 3.0 10.0 0.00 0.00 0.00 67 1012.6
20260901000145 70 249 5.0 7.0 0.00 0.00 0.00 64 1012.5
20260831235638 69 246 2.0 11.0 0.00 0.00 0.00 67 1012.6
20260831235134 69 258 6.0 10.0 0.00 0.00 0.00 65 1012.7
20260831234633 69 358 4.0 8.0 0.00 0.00 0.00 65 1012.6
20260831234128 69 317 5.0 14.0 0.00 0.00 0.00 67 1012.7
20260831233623 70 240 3.0 10.0 0.00 0.00 0.00 64 1012.7
20260831233119 69 273 8.0 11.0 0.00 0.00 0.00 65 1012.7
20260831232614 71 268 1.0 5.0 0.00 0.00 0.00 63 1012.7
20260831232110 71 248 4.0 7.0 0.00 0.00 0.00 62 1012.7
20260831231606 69 263 4.0 5.0 0.00 0.00 0.00 64 1012.7
20260831231101 70 222 3.0 5.0 0.00 0.00 0.00 63 1012.7
20260831230557 68 277 2.0 18.0 0.00 0.00 0.00 69 1013.0
20260831230057 71 250 6.0 8.0 0.00 0.00 0.00 63 1012.8
20260831225552 70 261 1.0 10.0 0.00 0.00 0.00 65 1012.9
20260831225047 70 247 2.0 7.0 0.00 0.00 0.00 65 1013.0
20260831224542 71 260 8.0 11.0 0.00 0.00 0.00 64 1013.0
20260831224038 70 254 7.0 14.0 0.00 0.00 0.00 67 1013.1
20260831223533 71 284 5.0 7.0 0.00 0.00 0.00 65 1012.9
20260831223029 71 250 4.0 8.0 0.00 0.00 0.00 63 1013.1
20260831222525 73 258 5.0 8.0 0.00 0.00 0.00 60 1013.1
20260831222025 71 255 3.0 12.0 0.00 0.00 0.00 65 1013.1
20260831221521 70 244 3.0 15.0 0.00 0.00 0.00 66 1013.2
20260831221015 71 281 5.0 8.0 0.00 0.00 0.00 61 1013.3
20260831220511 70 283 5.0 12.0 0.00 0.00 0.00 65 1013.4
20260831220006 71 288 3.0 10.0 0.00 0.00 0.00 62 1013.4
20260831215501 70 240 7.0 12.0 0.00 0.00 0.00 66 1013.4
20260831214957 68 249 4.0 8.0 0.00 0.00 0.00 67 1013.5
20260831214454 71 253 6.0 10.0 0.00 0.00 0.00 64 1013.6
20260831213950 69 248 3.0 5.0 0.00 0.00 0.00 66 1013.5
20260831213447 69 236 10.0 12.0 0.00 0.00 0.00 66 1013.5
20260831212946 70 279 5.0 15.0 0.00 0.00 0.00 65 1013.4
20260831212443 69 254 3.0 8.0 0.00 0.00 0.00 65 1013.4
20260831211942 70 264 4.0 8.0 0.00 0.00 0.00 65 1013.5
20260831211432 71 190 4.0 5.0 0.00 0.00 0.00 63 1013.4
20260831210925 71 271 6.0 10.0 0.00 0.00 0.00 62 1013.5
20260831210421 72 267 4.0 7.0 0.00 0.00 0.00 61 1013.6
20260831205916 70 260 2.0 10.0 0.00 0.00 0.00 63 1013.5
20260831205412 69 253 3.0 8.0 0.00 0.00 0.00 64 1013.6
20260831204907 69 238 2.0 4.0 0.00 0.00 0.00 63 1013.7
20260831204406 69 232 0.0 3.0 0.00 0.00 0.00 63 1013.8
20260831203905 69 273 1.0 7.0 0.00 0.00 0.00 66 1013.6
20260831203400 67 307 0.0 5.0 0.00 0.00 0.00 69 1013.6
20260831202858 66 268 4.0 5.0 0.00 0.00 0.00 69 1013.7
20260831202354 66 259 5.0 7.0 0.00 0.00 0.00 70 1013.8
20260831201853 66 234 3.0 5.0 0.00 0.00 0.00 70 1013.9
20260831201352 66 198 2.0 7.0 0.00 0.00 0.00 69 1013.9
20260831200848 65 233 2.0 4.0 0.00 0.00 0.00 73 1013.8
20260831200343 65 250 7.0 8.0 0.00 0.00 0.00 73 1013.8
20260831195838 64 226 5.0 7.0 0.00 0.00 0.00 76 1013.8
20260831195334 63 256 4.0 5.0 0.00 0.00 0.00 77 1013.8
20260831194829 64 242 5.0 11.0 0.00 0.00 0.00 76 1014.1
20260831194324 65 255 3.0 4.0 0.00 0.00 0.00 74 1014.1
20260831193823 64 248 0.0 3.0 0.00 0.00 0.00 76 1014.0
20260831193319 62 237 2.0 4.0 0.00 0.00 0.00 80 1014.0
20260831192814 61 250 5.0 10.0 0.00 0.00 0.00 82 1014.1
20260831192309 60 258 1.0 4.0 0.00 0.00 0.00 84 1014.2
20260831191805 61 278 0.0 0.0 0.00 0.00 0.00 82 1014.0
20260831191301 61 264 0.0 0.0 0.00 0.00 0.00 82 1014.2
20260831190756 60 235 0.0 0.0 0.00 0.00 0.00 84 1014.2
20260831190256 60 247 0.0 1.0 0.00 0.00 0.00 84 1014.3
20260831185750 59 250 2.0 4.0 0.00 0.00 0.00 86 1014.2
20260831185246 58 249 2.0 4.0 0.00 0.00 0.00 88 1014.2
20260831184745 59 255 5.0 7.0 0.00 0.00 0.00 87 1014.1
20260831184241 58 248 0.0 5.0 0.00 0.00 0.00 88 1014.2
20260831183741 59 258 5.0 7.0 0.00 0.00 0.00 85 1014.2
20260831183235 59 266 1.0 5.0 0.00 0.00 0.00 86 1014.2
20260831182734 59 239 0.0 0.0 0.00 0.00 0.00 87 1014.2
20260831182230 58 250 3.0 3.0 0.00 0.00 0.00 87 1014.2
20260831181730 59 254 1.0 3.0 0.00 0.00 0.00 87 1014.1
20260831181225 58 232 0.0 0.0 0.00 0.00 0.00 89 1014.1
20260831180720 57 234 1.0 4.0 0.00 0.00 0.00 89 1014.2
20260831180215 58 263 4.0 7.0 0.00 0.00 0.00 89 1014.1
20260831175714 58 242 3.0 4.0 0.00 0.00 0.00 87 1014.2
20260831175211 58 240 0.0 1.0 0.00 0.00 0.00 89 1014.0
20260831174711 57 258 0.0 0.0 0.00 0.00 0.00 90 1014.0
20260831174207 57 252 0.0 4.0 0.00 0.00 0.00 90 1013.9
20260831173705 57 261 2.0 4.0 0.00 0.00 0.00 90 1014.0
20260831173201 57 273 0.0 3.0 0.00 0.00 0.00 90 1014.0
20260831172700 57 244 0.0 0.0 0.00 0.00 0.00 92 1014.0
20260831172156 56 260 0.0 1.0 0.00 0.00 0.00 92 1013.9
20260831171650 56 250 0.0 1.0 0.00 0.00 0.00 92 1013.9
20260831171148 56 251 0.0 1.0 0.00 0.00 0.00 92 1013.8
20260831170644 56 239 0.0 0.0 0.00 0.00 0.00 92 1013.8
20260831170141 56 74 4.0 4.0 0.00 0.00 0.00 92 1013.8
20260831165636 56 271 0.0 0.0 0.00 0.00 0.00 94 1013.8
20260831165133 55 235 0.0 1.0 0.00 0.00 0.00 94 1013.7
20260831164629 55 257 0.0 1.0 0.00 0.00 0.00 94 1013.7
20260831164124 55 244 0.0 0.0 0.00 0.00 0.00 95 1013.6
20260831163619 55 237 0.0 0.0 0.00 0.00 0.00 95 1013.6
20260831163115 55 252 0.0 0.0 0.00 0.00 0.00 96 1013.7
20260831162614 55 252 0.0 0.0 0.00 0.00 0.00 96 1013.6
20260831162111 54 252 0.0 0.0 0.00 0.00 0.00 96 1013.5
20260831161602 54 252 0.0 1.0 0.00 0.00 0.00 96 1013.5
20260831161058 54 179 0.0 1.0 0.00 0.00 0.00 96 1013.6
20260831160556 54 45 0.0 1.0 0.00 0.00 0.00 97 1013.5
20260831160053 54 253 0.0 0.0 0.00 0.00 0.00 97 1013.5
20260831155547 54 237 0.0 0.0 0.00 0.00 0.00 98 1013.4
20260831155043 54 260 0.0 0.0 0.00 0.00 0.00 98 1013.3
20260831154539 54 249 0.0 0.0 0.00 0.00 0.00 98 1013.2
20260831154038 53 299 0.0 0.0 0.00 0.00 0.00 98 1013.3
20260831153532 53 231 0.0 0.0 0.00 0.00 0.00 98 1013.3
20260831153029 53 217 0.0 0.0 0.00 0.00 0.00 98 1013.4
20260831152524 53 124 0.0 0.0 0.00 0.00 0.00 98 1013.3
20260831152019 53 122 0.0 0.0 0.00 0.00 0.00 99 1013.4
20260831151513 53 171 0.0 1.0 0.00 0.00 0.00 98 1013.2
20260831151008 53 244 0.0 4.0 0.00 0.00 0.00 98 1013.3
20260831150503 53 231 0.0 0.0 0.00 0.00 0.00 99 1013.3
20260831150003 53 285 1.0 3.0 0.00 0.00 0.00 98 1013.2
20260831145453 53 235 0.0 0.0 0.00 0.00 0.00 98 1013.0
20260831144949 53 235 0.0 0.0 0.00 0.00 0.00 98 1013.0
20260831144444 52 234 0.0 0.0 0.00 0.00 0.00 98 1013.0
20260831143939 52 246 0.0 0.0 0.00 0.00 0.00 98 1012.8
20260831143434 52 252 0.0 0.0 0.00 0.00 0.00 98 1012.9
20260831142930 52 252 0.0 0.0 0.00 0.00 0.00 98 1012.8
20260831142426 52 240 0.0 0.0 0.00 0.00 0.00 98 1012.7
20260831141920 53 241 0.0 1.0 0.00 0.00 0.00 98 1012.5
20260831141419 53 129 0.0 0.0 0.00 0.00 0.00 98 1012.5
20260831140914 53 126 0.0 0.0 0.00 0.00 0.00 98 1012.5
20260831140409 53 126 0.0 0.0 0.00 0.00 0.00 98 1012.6
20260831135908 53 126 0.0 0.0 0.00 0.00 0.00 98 1012.6
20260831135403 53 126 0.0 0.0 0.00 0.00 0.00 98 1012.5
20260831134858 52 287 0.0 0.0 0.00 0.00 0.00 98 1012.4
20260831134354 53 251 0.0 0.0 0.00 0.00 0.00 98 1012.3
20260831133853 53 220 0.0 0.0 0.00 0.00 0.00 98 1012.3
20260831133353 53 220 0.0 0.0 0.00 0.00 0.00 97 1012.3
20260831132849 52 287 0.0 0.0 0.00 0.00 0.00 97 1012.3
20260831132344 52 287 0.0 0.0 0.00 0.00 0.00 97 1012.4
20260831131844 52 287 0.0 0.0 0.00 0.00 0.00 97 1012.3
20260831131340 52 253 0.0 0.0 0.00 0.00 0.00 97 1012.4
20260831130835 52 253 0.0 0.0 0.00 0.00 0.00 97 1012.4
20260831130330 52 253 0.0 0.0 0.00 0.00 0.00 97 1012.3
20260831125829 52 253 0.0 0.0 0.00 0.00 0.00 97 1012.3
20260831125325 53 241 0.0 0.0 0.00 0.00 0.00 97 1012.2
20260831124824 53 241 0.0 0.0 0.00 0.00 0.00 97 1012.2
20260831124321 53 240 0.0 0.0 0.00 0.00 0.00 97 1012.2
20260831123821 53 257 0.0 0.0 0.00 0.00 0.00 97 1012.2
20260831123319 53 257 0.0 0.0 0.00 0.00 0.00 97 1012.2
20260831122815 53 257 0.0 0.0 0.00 0.00 0.00 98 1012.2
20260831122310 52 257 0.0 0.0 0.00 0.00 0.00 98 1012.2
20260831121810 52 257 0.0 0.0 0.00 0.00 0.00 98 1012.3
20260831121307 52 257 0.0 0.0 0.00 0.00 0.00 98 1012.3
20260831120802 52 257 0.0 0.0 0.00 0.00 0.00 98 1012.3
20260831120256 52 257 0.0 0.0 0.00 0.00 0.00 98 1012.3
20260831115751 53 321 0.0 0.0 0.00 0.00 0.00 98 1012.1
20260831115243 53 321 0.0 0.0 0.00 0.00 0.00 98 1012.2
20260831114741 53 321 0.0 0.0 0.00 0.00 0.00 98 1012.2
20260831114240 53 321 0.0 0.0 0.00 0.00 0.00 98 1012.1
20260831113736 53 321 0.0 0.0 0.00 0.00 0.00 98 1012.1
20260831113230 52 321 0.0 0.0 0.00 0.00 0.00 98 1011.9
20260831112729 52 321 0.0 0.0 0.00 0.00 0.00 98 1012.1
20260831112225 52 321 0.0 0.0 0.00 0.00 0.00 98 1012.1
20260831111720 52 321 0.0 0.0 0.00 0.00 0.00 98 1012.0
20260831111217 51 321 0.0 0.0 0.00 0.00 0.00 98 1012.1
20260831110712 51 321 0.0 0.0 0.00 0.00 0.00 98 1012.1
20260831110207 51 321 0.0 0.0 0.00 0.00 0.00 98 1012.1
20260831105706 51 321 0.0 0.0 0.00 0.00 0.00 97 1012.0
20260831105202 51 321 0.0 0.0 0.00 0.00 0.00 97 1012.0
20260831104657 51 321 0.0 0.0 0.00 0.00 0.00 97 1011.9
20260831104154 51 321 0.0 0.0 0.00 0.00 0.00 97 1012.0
20260831103653 51 321 0.0 0.0 0.00 0.00 0.00 97 1012.0
20260831103149 51 321 0.0 0.0 0.00 0.00 0.00 97 1012.1
20260831102648 51 321 0.0 0.0 0.00 0.00 0.00 97 1011.9
20260831102144 51 321 0.0 0.0 0.00 0.00 0.00 97 1012.0
20260831101639 51 321 0.0 0.0 0.00 0.00 0.00 97 1011.9